Location: Middelsbur
(53.6609°N, 7.5020°E)
Time: 23:25:52
(UTC+00:00)

Cosmos 1420 Rocket - Pass Details

Date: 06 July 2020
Orbit: 754 x 782 km, 74.0° (Epoch: 14 August)

Event Time Altitude Azimuth Distance (km) Brightness Sun altitude
Rises 22:11:49 0° 334° (NNW) 3,249 9.3 -11.7°
Reaches altitude 10° 22:14:13 10° 337° (NNW) 2,323 8.0 -11.8°
Maximum altitude 22:19:28 67° 60° (ENE) 839 4.2 -12.0°
Enters shadow 22:23:52 15° 142° (SE) 1,996 5.6 -12.2°
